Location: Newark
(45.2500°N, 7.5833°E)
Time: 23:45:19
(UTC+00:00)

Tiros 1 despin weight - Visible Passes

Search period start: 16 January 2021 00:00
Search period end: 26 January 2021 00:00
Orbit: 594 x 641 km, 48.2° (Epoch: 16 January)

Date Brightness Start Highest point End Pass type
(mag) Time Alt. Az. Time Alt. Az. Time Alt. Az.
16 Jan ? 18:09:02 10° WSW 18:13:30 78° NNW 18:14:26 54° ENE visible
16 Jan ? 19:50:56 10° WNW 19:51:29 13° WNW 19:51:29 13° WNW visible
17 Jan ? 16:43:59 10° SW 16:48:24 59° SSE 16:52:46 10° ENE visible
17 Jan ? 18:25:33 10° W 18:29:58 63° N 18:30:11 62° N visible
18 Jan ? 17:00:16 10° WSW 17:04:45 88° SSE 17:08:53 12° ENE visible
18 Jan ? 18:42:07 10° W 18:45:56 53° NW 18:45:56 53° NW visible
19 Jan ? 17:16:43 10° W 17:21:12 70° NNW 17:24:38 17° ENE visible
19 Jan ? 18:58:38 10° WNW 19:01:41 40° NW 19:01:41 40° NW visible
20 Jan ? 17:33:16 10° W 17:37:42 60° N 17:40:23 23° ENE visible
20 Jan ? 19:15:05 10° WNW 19:17:26 30° WNW 19:17:26 30° WNW visible
21 Jan ? 17:49:49 10° WNW 17:54:14 58° N 17:56:09 31° ENE visible
21 Jan ? 19:31:31 10° WNW 19:33:12 23° WNW 19:33:12 23° WNW visible
22 Jan ? 18:06:19 10° WNW 18:10:46 65° N 18:11:58 44° ENE visible
22 Jan ? 19:47:58 10° WNW 19:49:01 17° WNW 19:49:01 17° WNW visible
23 Jan ? 18:22:45 10° WNW 18:27:14 82° NNE 18:27:50 65° E visible
23 Jan ? 20:04:34 10° W 20:04:54 12° W 20:04:54 12° W visible
24 Jan ? 16:57:30 10° WNW 17:01:57 60° N 17:06:21 10° E visible
24 Jan ? 18:39:11 10° WNW 18:43:37 70° SSW 18:43:47 69° S visible
25 Jan ? 17:13:58 10° WNW 17:18:28 71° NNE 17:22:45 11° E visible
25 Jan ? 18:55:40 10° WNW 18:59:49 43° SW 18:59:49 43° SW visible
